Home   Weather   Hampton   Past weeks

Flag for USA Past Weather in Hampton, Virginia, USA — Yesterday and Last 2 Weeks

Now
49 °F

Sunny.


Feels Like: 43 °F
Forecast: 42 / 51 °F
Wind: 16 mph from Northwest

Location: Langley Air Force Base

Current Time: Dec 3, 2016 at 12:47:43 pm

Latest Report: Dec 3, 2016 at 11:58 am


Visibility: 10 mi

Pressure: 30.23 "Hg

Humidity: 47%

Dew Point: 30 °F

Location of HamptonLocation

Past Weather in Hampton — Graph

°F

Hampton Temperature Yesterday

Maximum temperature yesterday: 55 °F (at 1:58 pm)
Minimum temperature yesterday: 36 °F (at 6:58 am)
Average temperature yesterday: 45 °F

High & Low Weather Summary for the Past Weeks

 TemperatureHumidityPressure
High76 °F (Nov 30, 12:58 pm)100% (Nov 19, 7:03 am)30.39 "Hg (Nov 19, 7:03 am)
Low26 °F (Nov 22, 3:58 am)21% (Nov 22, 2:58 pm)29.62 "Hg (Dec 1, 2:03 am)
Average50 °F69%30.08 "Hg
* Reported Nov 18 10:58 am — Dec 3 10:58 am, Hampton, Weather by CustomWeather, © 2016

Note: Actual official high and low records may vary slightly from our data, if they occured in-between our weather recording intervals... More about our weather records

Advertising

Hampton Weather History for the Previous 24 Hours

Scroll right to see more
 ConditionsComfort  
Time TempWeatherWind HumidityBarometerVisibility
10:58 am
Sat, Dec 3
49 °FSunny.15 mph47%30.24 "Hg10 mi
9:58 am46 °FSunny.13 mph54%30.24 "Hg10 mi
8:58 am43 °FSunny.9 mph62%30.24 "Hg10 mi
7:58 am40 °FSunny.12 mph66%30.23 "Hg10 mi
6:58 am36 °FClear.8 mph72%30.22 "Hg10 mi
5:58 am36 °FClear.8 mph78%30.22 "Hg10 mi
4:58 am37 °FClear.7 mph71%30.20 "Hg10 mi
3:58 am38 °FClear.7 mph69%30.18 "Hg10 mi
2:58 am39 °FClear.7 mph67%30.17 "Hg10 mi
1:58 am41 °FPassing clouds.6 mph65%30.17 "Hg10 mi
12:58 am42 °FOvercast.12 mph65%30.17 "Hg10 mi
11:58 pm
Fri, Dec 2
41 °FClear.7 mph68%30.16 "Hg10 mi
10:58 pm43 °FClear.14 mph67%30.15 "Hg10 mi
9:58 pm45 °FClear.16 mph67%30.14 "Hg10 mi
8:58 pm41 °FClear.9 mph78%30.11 "Hg10 mi
7:58 pm43 °FClear.6 mph74%30.09 "Hg10 mi
6:58 pm44 °FClear.5 mph70%30.08 "Hg10 mi
5:58 pm47 °FClear.6 mph59%30.07 "Hg10 mi
4:58 pm51 °FClear.7 mph51%30.06 "Hg10 mi
3:58 pm54 °FSunny.7 mph43%30.05 "Hg10 mi
2:58 pm55 °FPassing clouds.12 mph41%30.05 "Hg10 mi
1:58 pm55 °FSunny.14 mph41%30.05 "Hg10 mi
12:58 pm54 °FSunny.13 mph41%30.06 "Hg10 mi
Weather by CustomWeather, © 2016

See weather overviewHow to use our weather pages